Home > Time Zones > World Clock > Weather > Spain > Ceuta > Past weeks

Flag for Spain Weather past 2 weeks in Ceuta, Ceuta, Spain

Now
73 °F

Passing clouds.


Feels Like: 73 °F
Forecast: 72 / 80 °F
Wind: 6 mph from East

Location: Gibraltar Airport

Current Time: Jul 5, 2015 at 8:19:39 AM

Latest Report: Jul 5, 2015 at 7:50 AM


Visibility: N/A

Pressure: 30.04 "Hg

Humidity: 83%

Dew point: 68 °F

Location of CeutaLocation

Historic Weather in Ceuta — Graph

°F

Ceuta temperature yesterday

Maximum temperature yesterday: 81 °F (at 2:50 PM)
Minimum temperature yesterday: 72 °F (at 1:50 AM)
Average temperature yesterday: 75 °F

Past Weeks' High & Low Weather Summary

 TemperatureHumidityPressure
High84 °F (Jun 30, 4:50 PM)100% (Jun 20, 6:50 AM)30.18 "Hg (Jun 20, 6:50 AM)
Low64 °F (Jun 20, 8:50 AM)21% (Jun 27, 7:50 PM)29.95 "Hg (Jun 23, 4:50 AM)
Average74 °F71%30.05 "Hg
* Reported Jun 20 6:50 AM — Jul 5 6:50 AM, Ceuta, Weather by CustomWeather, © 2015

Note: Actual official high and low records may vary slightly from our data, if they occured in-between our weather recording intervals... More about our weather records

Advertising

Ceuta weather history for previous 24 hours

 ConditionsComfort  
Time TempWeatherWind HumidityBarometerVisibility
6:50 AM
Sun, Jul 5
73 °FHaze.3 mph78%30.01 "Hg5 mi
5:50 AM72 °FPassing clouds.6 mph88%30.01 "HgN/A
4:50 AM73 °FPassing clouds.8 mph78%30.01 "HgN/A
3:50 AM72 °FPassing clouds.6 mph88%30.04 "HgN/A
2:50 AM72 °FPassing clouds.3 mph88%30.04 "HgN/A
1:50 AM72 °FPassing clouds.7 mph88%30.07 "HgN/A
12:50 AM73 °FOvercast.7 mph83%30.07 "HgN/A
11:50 PM
Sat, Jul 4
73 °FPassing clouds.5 mph83%30.07 "HgN/A
10:50 PM75 °FOvercast.9 mph78%30.04 "HgN/A
9:50 PM75 °FPartly sunny.7 mph83%30.04 "HgN/A
8:50 PM73 °FSunny.6 mph83%30.04 "Hg10 mi
7:50 PM75 °FSunny.10 mph78%30.04 "Hg10 mi
6:50 PM75 °FSunny.7 mph78%30.04 "Hg10 mi
5:50 PM77 °FSunny.7 mph74%30.07 "Hg10 mi
4:50 PM79 °FSunny.10 mph70%30.07 "Hg10 mi
3:50 PM81 °FSunny.12 mph66%30.09 "Hg10 mi
2:50 PM81 °FPassing clouds.10 mph66%30.09 "HgN/A
1:50 PM79 °FHaze.12 mph70%30.12 "Hg6 mi
12:50 PM79 °FHaze.12 mph70%30.12 "Hg6 mi
11:50 AM75 °FHaze.12 mph78%30.12 "Hg6 mi
10:50 AM77 °FHaze.13 mph79%30.09 "Hg6 mi
9:50 AM72 °FSleet. Haze.6 mph88%30.12 "Hg4 mi
8:50 AM72 °FSleet. Fog.5 mph88%30.09 "Hg4 mi
Weather by CustomWeather, © 2015

See weather overviewHow to use our weather pages